Regional Weather Roundup
Issued by NWS New Orleans/Baton Rouge, LA

Current Version | Previous Version | Text Only | Print | Product List | Glossary On
Versions: 1 2 3 4 5 6 7 8 9 10 11 12 13 14 15 16 17 18 19 20 21 22 23 24 25 26 27 28 29 30 31 32 33 34 35 36 37 38 39 40 41 42 43 44 45 46 47 48 49 50
962
ASUS44 KLIX 202310
RWRLIX
NEW ORLEANS REGIONAL WEATHER ROUNDUP
NATIONAL WEATHER SERVICE NEW ORLEANS LA
600 PM CDT FRI APR 20 2018

NOTE: "FAIR" INDICATES FEW OR NO CLOUDS BELOW 12,000 FEET WITH NO
      SIGNIFICANT WEATHER AND/OR OBSTRUCTIONS TO VISIBILITY.
      SKY/WX - SKY CONDITION AND SIGNIFICANT WEATHER.
      TMP - AIR TEMPERATURE.     DP    - DEWPOINT TEMPERATURE.
      RH  - RELATIVE HUMIDITY.   PRES  - PRESSURE.
      HI  - HEAT INDEX.          WCI   - WIND CHILL INDEX.

*  THESE STATIONS ARE NOT NWS OR FAA STATIONS AND ARE NOT UNDER
   NWS QUALITY CONTROL.

LAZ038-040-048-061>063-065>067-069-210000-
SOUTHEAST LOUISIANA

CITY           SKY/WX    TMP DP  RH WIND       PRES   REMARKS
N.O. INTL ARPT CLOUDY    67  44  43 NE6       30.17F
N.O. LAKEFRONT FAIR      66  47  50 E8        30.18F
N.O. DOWNTOWN* FAIR      66  44  45 VRB3      30.18F
RESERVE*       FAIR      68  43  40 E6        30.17F
SLIDELL        FAIR      65  46  50 S5        30.18S
BATON ROUGE    FAIR      67  43  41 NE7       30.16F
BOOTHVILLE     FAIR      63  51  65 NE8       30.18F
BELLE CHASSE   PTSUNNY   64  49  57 E8        30.17F
BOGALUSA*      FAIR      70  42  37 CALM      30.19S
GALLIANO*      FAIR      64  49  57 E7        30.17S
NEW ROADS*     FAIR      65  45  47 N5        30.17F
GONZALES*      FAIR      68  44  41 CALM      30.16S
HAMMOND*       FAIR      66  46  48 NE3       30.17F
HOUMA*         MOSUNNY   66  46  48 NE9       30.16F
PORT FOURCHON* CLEAR     64  52  63 E15       30.16S

$$

MSZ070-080>082-210000-
SOUTHERN MISSISSIPPI

CITY           SKY/WX    TMP DP  RH WIND       PRES   REMARKS
MCCOMB         FAIR      68  42  38 E5        30.18F
GULFPORT       FAIR      66  47  50 S6        30.19R
BILOXI         FAIR      64  47  53 S5        30.18S
PASCAGOULA     FAIR      65  47  52 SW3       30.18F
STENNIS ARPT*  SUNNY     64  48  55 S6        30.19R

$$

COASTAL OBSERVATIONS
LAKE AND NEARSHORE STATIONS

STATION/POSITION TIME  SKY/WX   TEMP    WIND        PRES    WAVE
                                AIR SEA DIR/SP/G            HT/PER
                 (UTC)          (F)     (DEG/KT/KT) (MB)    (FT/S)
WAVELAND YACHT   2236            64 66  160/  7/  8 1022.2
GRAND ISLE       2248            63 70   60/ 11/ 13 1021.7
SOUTHWEST PASS   2236            65 58   50/ 15/ 17 1021.9
NEW CANAL        2248            65 68   40/  4/  5 1021.6
SHELL BEACH      2236            64 72  110/  8/  9 1021.9

OFFSHORE STATIONS

STATION/POSITION TIME  SKY/WX   TEMP    WIND        PRES    WAVE
                                AIR SEA DIR/SP/G            HT/PER
                 (UTC)          (F)     (DEG/KT/KT) (MB)    (FT/S)
64 S DAUPHIN ISL 2250               71   20/  8/ 10 1022.0    3/ 6

$$





USA.gov is the U.S. government's official web portal to all federal, state and local government web resources and services.